Richmond (NSW), Australia

9:50 AM AEDT on October 20, 2017 (GMT +1100)
Richmond (Military)

Weather History for YSRI - November, 2013

Change the Weather History Date:

Sunday, November 3, 2013

  Actual Average Record
Temperature  
Mean Temperature 74 °F -  
Max Temperature 93 °F 80 °F - ()
Min Temperature 55 °F 57 °F - ()
Cooling Degree Days 9    
Growing Degree Days 24 (Base 50)    
Moisture  
Dew Point 45 °F    
Average Humidity 47    
Maximum Humidity 100    
Minimum Humidity 4    
Precipitation  
Precipitation 0.00 in 0.11 in - ()
Sea Level Pressure  
Sea Level Pressure 29.87 in    
Wind  
Wind Speed 7 mph ()    
Max Wind Speed 28 mph    
Max Gust Speed 40 mph    
Visibility 5.9 miles    
Events      
T = Trace of Precipitation, MM = Missing Value Source: Averaged Metar Reports

Daily Weather History Graph

Daily Weather History Graph

Search for Another Location

Airport or City:

Trip Planner

Search our weather history database for the weather conditions in past years. The results will help you decide how hot, cold, wet, or windy it might be!

Date:

Astronomy

Nov. 03, 2013 Rise Set
Actual Time 5:55 AM AEDT 7:26 PM AEDT
Civil Twilight 5:28 AM AEDT 7:52 PM AEDT
Nautical Twilight 4:57 AM AEDT 8:24 PM AEDT
Astronomical Twilight 4:23 AM AEDT 8:57 PM AEDT
Moon 5:28 AM AEDT (11/3) 7:08 PM AEDT (11/3)
Length of Visible Light 14h 23m
Length of Day
13h 30m
Waning Crescent, 0% of the Moon is Illuminated
Nov 3
Waning Crescent
Nov 3
New
Nov 10
First Quarter
Nov 18
Full
Nov 26
Last Quarter

Hourly Weather History & Observations

Time (AEDT) Temp. Dew Point Humidity Pressure Visibility Wind Dir Wind Speed Gust Speed Precip Events Conditions
12:00 AM 69.8 °F 57.2 °F 64% 29.92 in 6.2 mi NW 2.3 mph - N/A   Unknown
12:30 AM 69.8 °F 53.6 °F 56% 29.92 in 6.2 mi Calm Calm - N/A   Unknown
1:00 AM 68.0 °F 57.2 °F 68% 29.92 in 6.2 mi Calm Calm - N/A   Scattered Clouds
1:30 AM 66.2 °F 57.2 °F 73% 29.92 in 6.2 mi Calm Calm - N/A   Unknown
2:00 AM 62.6 °F 53.6 °F 72% 29.89 in 6.2 mi North 1.2 mph - N/A   Unknown
2:30 AM 60.8 °F 55.4 °F 82% 29.89 in 6.2 mi Calm Calm - N/A   Unknown
3:00 AM 60.8 °F 51.8 °F 72% 29.89 in 6.2 mi Calm Calm - N/A   Unknown
3:30 AM 60.8 °F 55.4 °F 82% 29.89 in 6.2 mi Calm Calm - N/A   Unknown
4:00 AM 59.0 °F 55.4 °F 88% 29.86 in 6.2 mi Calm Calm - N/A   Unknown
4:30 AM 59.0 °F 55.4 °F 88% 29.86 in 6.2 mi Calm Calm - N/A   Unknown
5:00 AM 59.0 °F 55.4 °F 88% 29.86 in 6.2 mi Calm Calm - N/A   Unknown
5:30 AM 57.2 °F 55.4 °F 94% 29.86 in 6.2 mi Calm Calm - N/A   Unknown
6:00 AM 55.4 °F 55.4 °F 100% 29.86 in 6.2 mi Calm Calm - N/A   Unknown
6:30 AM 57.2 °F 53.6 °F 88% 29.86 in 6.2 mi Calm Calm - N/A   Unknown
7:00 AM 60.8 °F 57.2 °F 88% 29.86 in 4.3 mi Calm Calm - N/A   Unknown
7:14 AM 64.4 °F 59.0 °F 83% 29.86 in 3.7 mi Calm Calm - N/A   Unknown
7:30 AM 66.2 °F 57.2 °F 73% 29.86 in 4.3 mi Calm Calm - N/A   Unknown
8:00 AM 71.6 °F 55.4 °F 57% 29.86 in 3.1 mi East 3.5 mph - N/A   Unknown
8:30 AM 75.2 °F 48.2 °F 38% 29.86 in - NNE 1.2 mph - N/A   Unknown
9:00 AM 77.0 °F 48.2 °F 36% 29.83 in - Calm Calm - N/A   Unknown
9:30 AM 80.6 °F 48.2 °F 32% 29.83 in 2.8 mi Calm Calm - N/A   Unknown
10:00 AM 87.8 °F 48.2 °F 25% 29.83 in 3.1 mi Calm Calm - N/A   Unknown
10:20 AM 89.6 °F 39.2 °F 17% 29.83 in 6.2 mi West 11.5 mph - N/A   Unknown
10:30 AM 89.6 °F 37.4 °F 16% 0.00 in 6.2 mi West 17.3 mph 31.1 mph N/A   Scattered Clouds
11:00 AM 89.6 °F 35.6 °F 15% 29.83 in 6.2 mi West 17.3 mph - N/A   Scattered Clouds
11:17 AM 89.6 °F 37.4 °F 16% 29.80 in 6.2 mi WNW 18.4 mph 29.9 mph N/A   Unknown
11:30 AM 89.6 °F 37.4 °F 16% 29.80 in 6.2 mi West 23.0 mph 36.8 mph N/A   Unknown
12:03 PM 89.6 °F 37.4 °F 16% 29.80 in 6.2 mi West 17.3 mph 28.8 mph N/A   Unknown
12:30 PM 91.4 °F 39.2 °F 16% 29.77 in 6.2 mi West 17.3 mph 29.9 mph N/A   Unknown
1:00 PM 91.4 °F 35.6 °F 14% 29.74 in 6.2 mi West 19.6 mph 35.7 mph N/A   Unknown
1:30 PM 93.2 °F 37.4 °F 14% 29.74 in 6.2 mi West 26.5 mph 40.3 mph N/A   Unknown
2:03 PM 91.4 °F 37.4 °F 15% 29.74 in 6.2 mi West 25.3 mph 39.1 mph N/A   Unknown
2:30 PM 93.2 °F 37.4 °F 14% 29.74 in 6.2 mi West 27.6 mph 39.1 mph N/A   Unknown
2:59 PM 91.4 °F 26.6 °F 10% 29.74 in 6.2 mi WSW 27.6 mph - N/A   Unknown
3:01 PM 91.4 °F 24.8 °F 9% 29.74 in 6.2 mi WSW 26.5 mph 38.0 mph N/A   Unknown
3:30 PM 93.2 °F 23.0 °F 8% 29.71 in 6.2 mi West 20.7 mph 33.4 mph N/A   Unknown
4:00 PM 93.2 °F 19.4 °F 7% 29.74 in 6.2 mi West 19.6 mph - N/A   Unknown
4:14 PM 93.2 °F 12.2 °F 5% 29.74 in 6.2 mi WSW 21.9 mph 33.4 mph N/A   Unknown
4:30 PM 91.4 °F 12.2 °F 5% 29.74 in 6.2 mi West 20.7 mph 33.4 mph N/A   Unknown
5:00 PM 91.4 °F 6.8 °F 4% 29.74 in 6.2 mi West 21.9 mph 33.4 mph N/A   Unknown
5:21 PM 80.6 °F 48.2 °F 32% 29.80 in 6.2 mi South 18.4 mph - N/A   Unknown
5:25 PM 77.0 °F 53.6 °F 44% 29.80 in 6.2 mi SE 23.0 mph - N/A   Unknown
5:30 PM 75.2 °F 55.4 °F 50% 29.83 in 6.2 mi SE 21.9 mph - N/A   Unknown
6:00 PM 71.6 °F 55.4 °F 57% 29.83 in 6.2 mi SE 24.2 mph - N/A   Unknown
6:29 PM 68.0 °F 53.6 °F 60% 29.89 in 6.2 mi ESE 24.2 mph - N/A   Unknown
6:30 PM 68.0 °F 53.6 °F 60% 29.89 in 6.2 mi ESE 23.0 mph - N/A   Unknown
7:00 PM 66.2 °F 51.8 °F 60% 29.95 in 6.2 mi SE 17.3 mph - N/A   Overcast
7:30 PM 64.4 °F 51.8 °F 64% 29.98 in 6.2 mi SE 18.4 mph - N/A   Overcast
8:00 PM 64.4 °F 50.0 °F 59% 30.01 in 6.2 mi SE 13.8 mph - N/A   Overcast
8:30 PM 64.4 °F 50.0 °F 59% 30.04 in 6.2 mi SSE 11.5 mph - N/A   Overcast
9:00 PM 64.4 °F 50.0 °F 59% 30.04 in 6.2 mi SE 12.7 mph - N/A   Overcast
9:30 PM 64.4 °F 48.2 °F 56% 30.06 in 6.2 mi SE 12.7 mph - N/A   Overcast
10:00 PM 64.4 °F 48.2 °F 56% 30.09 in 6.2 mi SE 6.9 mph - N/A   Overcast
10:30 PM 64.4 °F 48.2 °F 56% 30.09 in 6.2 mi SE 6.9 mph - N/A   Overcast
11:00 PM 64.4 °F 48.2 °F 56% 30.09 in 6.2 mi ESE 6.9 mph - N/A   Overcast
11:30 PM 62.6 °F 46.4 °F 55% 30.09 in 6.2 mi ESE 9.2 mph - N/A   Overcast